Weather History for Alabaster, AL

Change the Weather History Date:

Wednesday, October 2, 2013

  Actual Average Record
Temperature  
Mean Temperature 74 °F 69 °F  
Max Temperature 84 °F 79 °F 90 °F (1959)
Min Temperature 64 °F 58 °F 36 °F (1966)
Degree Days  
Heating Degree Days 0 1  
Month to date heating degree days 0 2  
Since 1 July heating degree days 0 9  
Cooling Degree Days 9 5  
Month to date cooling degree days 20 10  
Year to date cooling degree days 1871 1894  
Growing Degree Days 24 (Base 50)    
Moisture  
Dew Point 63 °F    
Average Humidity 69    
Maximum Humidity 93    
Minimum Humidity 44    
Precipitation  
Precipitation 0.00 in 0.11 in 1.95 in (1956)
Month to date precipitation 0.00 0.22  
Year to date precipitation 50.12 42.13  
Snow  
Snow 0.00 in - - ()
Month to date snowfall 0.0  
Since 1 July snowfall 0.0  
Since 1 September snowfall 0.0  
Snow Depth 0.00 in    
Sea Level Pressure  
Sea Level Pressure 30.09 in    
Wind  
Wind Speed 1 mph (ESE)    
Max Wind Speed 7 mph    
Max Gust Speed 13 mph    
Visibility 10 miles    
Events      
T = Trace of Precipitation, MM = Missing Value Source: NWS Daily Summary

Daily Weather History Graph

Daily Weather History Graph

Search for Another Location

Airport:

Trip Planner

Search our weather history database for the weather conditions in past years. The results will help you decide how hot, cold, wet, or windy it might be!

Date:

Astronomy

Oct. 02, 2013 Rise Set
Actual Time 6:42 AM CDT 6:29 PM CDT
Civil Twilight 6:17 AM CDT 6:54 PM CDT
Nautical Twilight 5:48 AM CDT 7:23 PM CDT
Astronomical Twilight 5:19 AM CDT 7:52 PM CDT
Moon 4:20 AM CDT (10/2) 5:01 PM CDT (10/2)
Length of Visible Light 12h 37m
Length of Day
11h 47m
Waning Crescent, 6% of the Moon is Illuminated
Oct 2
Waning Crescent
Oct 4
New
Oct 11
First Quarter
Oct 18
Full
Oct 26
Last Quarter

Hourly Weather History & Observations

Time (CDT) Temp. Heat Index Dew Point Humidity Pressure Visibility Wind Dir Wind Speed Gust Speed Precip Events Conditions
12:53 AM 66.9 °F - 64.0 °F 90% 30.09 in 9.0 mi Calm Calm - N/A   Clear
1:53 AM 66.0 °F - 64.0 °F 93% 30.09 in 9.0 mi Calm Calm - N/A   Clear
2:53 AM 66.0 °F - 63.0 °F 90% 30.08 in 8.0 mi Calm Calm - N/A   Clear
3:53 AM 64.9 °F - 62.1 °F 90% 30.09 in 9.0 mi Calm Calm - N/A   Clear
4:53 AM 64.9 °F - 62.1 °F 90% 30.09 in 9.0 mi Calm Calm - N/A   Clear
5:53 AM 64.9 °F - 62.1 °F 90% 30.11 in 10.0 mi Calm Calm - N/A   Clear
6:53 AM 66.0 °F - 62.1 °F 87% 30.12 in 10.0 mi Calm Calm - N/A   Clear
7:53 AM 69.1 °F - 63.0 °F 81% 30.14 in 10.0 mi Calm Calm - N/A   Clear
8:53 AM 70.0 °F - 63.0 °F 78% 30.14 in 10.0 mi Calm Calm - N/A   Clear
9:53 AM 73.9 °F - 64.0 °F 71% 30.14 in 10.0 mi Variable 3.5 mph - N/A   Clear
10:53 AM 80.1 °F 81.7 °F 64.0 °F 58% 30.13 in 10.0 mi ENE 4.6 mph - N/A   Clear
11:53 AM 82.0 °F 83.0 °F 62.1 °F 51% 30.12 in 10.0 mi Calm Calm - N/A   Clear
12:53 PM 82.9 °F 83.7 °F 62.1 °F 49% 30.10 in 10.0 mi Variable 3.5 mph - N/A   Mostly Cloudy
1:53 PM 84.0 °F 84.4 °F 61.0 °F 46% 30.08 in 10.0 mi Variable 3.5 mph - N/A   Partly Cloudy
2:53 PM 84.0 °F 84.4 °F 61.0 °F 46% 30.06 in 10.0 mi Calm Calm - N/A   Scattered Clouds
3:53 PM 82.9 °F 83.2 °F 60.1 °F 46% 30.05 in 10.0 mi Variable 3.5 mph - N/A   Partly Cloudy
4:53 PM 82.0 °F 83.0 °F 62.1 °F 51% 30.04 in 10.0 mi SE 3.5 mph - N/A   Clear
5:53 PM 80.1 °F 81.2 °F 62.1 °F 54% 30.05 in 10.0 mi Calm Calm - N/A   Clear
6:53 PM 75.9 °F - 64.9 °F 69% 30.06 in 10.0 mi Calm Calm - N/A   Clear
7:53 PM 73.9 °F - 66.9 °F 79% 30.07 in 10.0 mi Calm Calm - N/A   Partly Cloudy
8:53 PM 73.0 °F - 66.9 °F 81% 30.08 in 10.0 mi Calm Calm - N/A   Clear
9:53 PM 73.0 °F - 68.0 °F 84% 30.09 in 10.0 mi Calm Calm - N/A   Clear
10:53 PM 72.0 °F - 64.9 °F 78% 30.09 in 10.0 mi Calm Calm - N/A   Clear
11:53 PM 72.0 °F - 64.0 °F 76% 30.09 in 10.0 mi Calm Calm - N/A   Clear